RH
72 86 93 99 100 88 98 100 100 100 98 99 95 88 89 92 98 92 99 98 100 98 97 100 100 100 100 100 99 99 100 99 100 99 99 98 97 98
56 60 67 70 94 98 99 98 100 100 100 98 96 99 99 100 100 98 100 100 100 100 100 100 99 100 100 100 100 98 99 100 99 99 99 98 98 98
59 61 62 69 97 100 97 98 96 95 100 98 100 98 98 99 100 100 99 100 100 100 100 99 99 99 99 98 99 100 99 98 98 99 97 98 96 97
61 61 64 92 100 98 98 98 98 98 100 100 99 100 98 100 100 99 99 99 100 99 99 99 99 98 100 99 100 99 100 98 88 83 96 96 96 98
72 77 82 86 91 92 96 99 99 98 99 99 100 98 99 100 99 100 99 99 99 99 100 100 98 100 96 96 99 87 69 84 57 78 72 62 73 94
80 79 79 78 81 91 94 98 98 100 100 100 99 99 99 99 99 99 99 100 99 98 97 93 80 56 43 47 47 37 33 28 27 32 32 36 36 49
75 78 82 89 94 92 95 100 99 99 100 100 100 99 99 100 99 99 98 98 94 76 58 48 36 28 30 23 18 17 22 30 34 40 45 80 99 100
87 90 94 99 98 100 98 98 98 98 98 98 98 97 98 95 84 73 64 61 48 36 28 24 24 21 18 17 23 31 36 41 45 47 49 60 94 100
92 94 96 96 96 95 92 91 95 96 93 92 82 65 50 52 59 61 58 47 41 41 42 19 18 21 33 37 40 42 47 49 51 53 53 54 74 86
68 82 80 73 64 54 42 41 38 30 27 27 28 32 36 41 46 47 52 54 46 33 29 27 38 41 45 49 49 49 49 51 54 56 57 56 58 57
16 17 17 17 16 14 15 17 18 23 31 34 43 47 46 47 54 40 33 39 28 34 54 59 51 48 46 45 44 44 48 51 56 60 60 59 56 54
12 14 17 18 21 20 16 19 19 22 26 31 37 39 41 40 35 39 39 40 60 62 62 66 63 64 57 50 53 58 59 59 57 56 56 57 58 57
14 17 20 24 22 22 22 21 24 23 25 25 24 24 25 29 33 38 50 62 66 70 75 82 72 71 81 70 49 55 59 56 56 56 57 56 56 58
19 22 25 28 27 26 25 27 29 28 28 27 27 30 33 44 56 63 66 68 70 69 74 82 84 82 89 83 62 50 52 52 53 53 54 56 59 62
22 23 25 26 25 24 27 28 26 29 30 35 42 52 64 66 66 68 71 72 72 73 76 81 84 88 92 94 82 61 58 49 52 53 54 59 61 63
22 25 27 28 29 29 30 30 32 38 47 59 66 67 67 68 71 76 72 74 72 72 82 88 90 95 92 89 91 79 65 71 56 60 64 65 62 62
24 27 31 29 29 28 29 32 40 50 61 68 68 65 66 68 69 73 72 73 74 73 72 79 88 92 93 94 90 80 75 72 68 64 68 70 64 62
26 27 32 30 28 27 28 31 38 47 57 64 66 65 65 65 65 66 69 69 69 71 77 83 87 88 83 78 80 76 76 77 73 75 75 76 68 62
28 29 29 29 28 28 28 28 31 39 44 49 53 56 58 58 58 58 60 62 65 76 84 87 88 93 95 91 78 81 85 80 81 78 77 78 74 60
29 30 29 29 28 27 28 28 28 31 35 39 42 44 47 48 50 52 55 65 84 89 85 85 88 96 98 98 98 82 81 79 83 80 72 71 68 64
26 27 28 26 25 26 26 27 28 28 30 33 36 39 42 45 48 59 80 95 98 96 94 90 90 96 97 99 96 78 75 78 79 79 74 82 76 70
22 23 24 25 25 25 26 27 26 28 31 34 37 41 49 69 86 96 98 98 96 97 94 88 86 88 91 92 87 85 76 72 71 72 75 84 93 100
20 21 22 23 24 25 26 27 29 32 36 44 59 78 94 98 99 99 99 98 95 94 93 88 88 93 93 93 90 85 80 78 78 73 66 69 72 78
Wind_Speed
19 18 18 17 17 18 18 19 20 24 27 22 24 26 28 31 29 32 33 39 39 36 33 31 31 30 30 34 28 25 24 30 31 27 26 24 23 19
15 13 13 14 14 16 15 15 15 18 25 28 31 32 27 26 21 24 33 31 28 28 28 27 26 26 29 24 24 24 25 26 25 24 21 20 21 19
15 15 16 17 16 15 16 17 17 20 24 27 27 26 26 23 20 20 23 26 26 28 25 24 21 21 24 24 23 26 24 21 19 19 19 20 19 19
19 19 19 16 17 18 18 16 18 19 20 22 20 17 18 17 18 17 22 23 25 26 23 21 22 23 24 24 24 18 18 22 22 20 19 19 19 19
12 13 14 15 14 14 14 13 13 14 13 12 13 13 12 12 14 17 19 21 20 19 18 20 20 20 18 15 19 22 23 22 22 20 21 20 19 18
5 7 9 9 9 7 8 8 8 9 8 8 8 10 10 9 9 11 14 15 16 16 16 15 15 14 17 20 23 25 27 26 23 20 18 18 18 17
3 5 6 5 5 6 6 5 5 6 7 8 8 8 7 7 8 9 12 13 14 12 12 16 17 20 21 23 23 21 20 19 18 17 16 15 15 17
4 5 5 5 6 7 8 8 9 9 9 10 10 10 10 9 10 10 10 12 12 13 17 17 19 20 18 20 18 17 17 17 17 17 16 16 17 17
5 6 6 7 8 9 10 9 10 12 12 10 10 9 9 9 9 11 12 14 16 16 19 19 15 14 15 15 16 17 18 18 16 16 17 17 17 17
7 8 8 9 9 9 10 10 10 10 11 11 11 11 11 12 13 15 15 16 16 14 15 17 11 12 13 14 17 18 19 19 18 18 16 19 20 22
9 9 9 11 12 12 11 11 12 12 13 13 12 12 12 12 14 15 13 11 13 10 12 15 13 14 15 17 18 18 18 19 16 16 18 21 22 25
10 11 12 13 12 15 13 12 13 13 13 13 14 14 14 13 12 13 12 11 11 10 7 12 17 20 11 13 12 13 13 16 15 19 21 23 24 28
10 10 11 12 13 14 15 14 14 14 13 13 12 11 10 10 9 10 10 12 13 15 15 17 22 23 22 24 21 15 15 19 25 22 23 22 24 25
11 11 11 11 12 11 12 12 12 13 13 12 10 8 8 8 10 11 13 15 17 18 17 20 25 24 25 28 29 26 23 22 25 23 22 21 17 23
12 11 11 11 12 12 12 11 11 11 10 10 9 9 10 11 12 14 15 17 19 19 18 19 21 21 23 26 31 28 28 29 26 23 18 22 23 24
13 12 11 11 11 11 10 10 9 9 10 10 11 12 13 14 13 15 17 16 19 16 16 16 18 21 23 24 26 30 26 32 27 28 29 27 27 26
14 12 12 12 11 11 11 10 10 11 12 13 14 14 13 14 14 16 17 18 20 21 19 17 18 21 24 26 30 29 29 29 28 27 28 31 30 30
15 14 13 13 12 12 12 12 12 13 14 16 16 16 17 18 19 18 18 20 23 24 24 21 21 24 27 29 27 28 27 28 24 24 25 32 36 32
14 14 14 14 14 14 14 14 14 15 17 18 18 18 19 21 23 23 23 24 25 26 26 24 23 22 27 32 34 25 25 23 28 31 31 35 38 38
16 15 15 15 15 15 16 16 16 17 18 19 20 21 21 23 25 26 26 27 28 28 29 27 24 22 24 28 33 37 31 31 32 35 36 35 36 36
16 16 17 17 16 16 17 18 19 19 20 21 22 22 23 24 27 27 28 28 28 29 31 30 24 22 25 29 36 42 39 35 33 34 34 34 37 38
16 17 16 17 17 18 18 19 21 21 21 22 23 24 24 26 27 28 28 29 30 30 30 28 25 26 28 31 39 41 39 36 33 31 32 32 34 37
16 17 16 17 17 18 20 21 22 22 22 23 24 25 26 27 26 27 28 28 29 30 30 32 32 33 35 36 38 40 41 41 39 38 36 29 29 30
Wind_Direction
274 269 269 273 276 278 278 282 289 284 292 299 305 311 301 289 273 271 256 248 251 238 236 251 263 268 265 268 263 265 261 264 264 265 265 270 271 274
272 271 273 274 275 274 284 287 284 282 281 290 298 297 297 284 272 258 257 243 244 245 251 263 270 264 266 259 263 270 261 260 264 266 273 276 275 275
271 277 283 284 288 290 289 294 294 288 283 287 289 296 303 290 268 264 249 245 247 248 257 258 261 254 264 266 256 255 260 262 267 266 266 268 271 267
287 290 290 290 291 293 292 297 283 280 282 282 288 298 301 291 278 260 249 251 255 257 259 263 262 261 260 263 264 270 262 258 263 269 269 267 267 266
304 314 319 322 319 298 294 299 294 288 279 281 292 301 304 290 275 270 260 262 264 266 265 261 260 260 261 258 250 253 260 266 267 268 269 270 268 268
330 321 312 305 302 303 297 300 296 289 284 289 297 303 307 300 285 269 266 266 269 268 264 266 264 263 264 262 263 269 272 272 272 269 270 271 269 267
268 282 288 297 299 296 299 320 317 298 302 300 299 294 290 290 282 274 271 274 273 278 276 271 276 275 275 272 272 272 272 270 267 266 265 265 269 269
337 337 337 334 321 324 321 312 301 298 291 283 286 287 290 291 289 284 279 276 281 283 279 276 279 273 272 269 270 268 264 262 261 261 261 263 265 265
354 342 325 315 306 306 307 308 304 301 298 296 294 295 292 288 283 278 279 282 284 286 288 289 280 273 267 268 269 267 264 262 260 260 262 264 266 266
334 323 318 316 310 311 309 304 299 298 295 298 299 298 295 293 289 288 289 290 292 295 292 293 290 280 274 272 265 265 263 257 256 255 253 268 268 273
326 318 313 310 306 306 305 301 299 296 296 299 298 295 290 288 291 291 293 298 298 298 294 292 299 299 302 292 280 269 252 245 241 259 268 274 277 276
317 312 313 311 310 309 305 302 299 294 290 289 289 290 289 286 280 282 286 288 291 310 302 309 306 317 317 299 281 266 248 231 254 273 273 277 278 277
311 308 305 303 303 305 306 311 308 303 304 303 300 294 288 285 283 282 283 285 288 289 299 298 299 306 305 300 288 263 244 246 271 267 273 278 276 275
319 316 312 309 308 307 306 302 297 297 303 304 301 298 296 291 288 287 287 288 289 291 291 290 294 302 298 298 294 295 286 271 272 273 274 275 268 274
319 316 311 307 303 305 304 300 300 302 302 302 302 300 297 293 290 289 287 289 288 292 294 292 291 293 288 288 292 294 297 291 290 285 277 282 282 280
316 313 311 307 302 302 303 299 299 299 299 299 299 297 296 295 295 295 297 297 293 293 288 290 290 292 291 291 290 291 293 287 291 289 289 285 285 285
311 312 310 307 302 301 299 297 294 294 294 295 298 298 298 299 301 302 304 304 302 304 298 295 297 295 292 290 287 291 295 290 291 289 285 287 286 291
303 305 301 300 299 297 294 291 290 291 294 296 300 301 302 303 302 303 302 302 303 305 303 304 302 301 297 293 290 296 291 292 295 290 287 289 291 293
301 300 299 296 295 292 292 290 287 285 288 291 295 298 298 300 301 303 304 303 302 304 305 305 304 304 303 299 302 298 293 299 300 297 297 295 297 297
300 299 298 295 293 290 290 291 290 289 290 293 295 297 299 299 298 300 301 303 303 304 303 304 309 311 301 300 299 295 295 300 300 299 298 295 291 292
296 295 295 294 292 290 291 292 294 295 295 294 294 295 296 296 296 298 300 301 302 303 301 302 309 307 306 301 293 298 303 303 302 299 298 295 296 296
294 293 292 290 290 290 291 293 293 294 294 295 296 295 296 294 295 298 300 302 302 302 301 304 307 304 298 297 297 300 303 305 306 300 294 289 284 277
295 293 293 291 291 291 292 292 294 297 299 299 297 296 296 296 297 298 300 301 301 300 301 304 305 304 304 303 303 303 305 307 309 306 302 303 299 294